EST,Max TemperatureF,Mean TemperatureF,Min TemperatureF,Max Dew PointF,MeanDew PointF,Min DewpointF,Max Humidity, Mean Humidity, Min Humidity, Max Sea Level PressureIn, Mean Sea Level PressureIn, Min Sea Level PressureIn, Max VisibilityMiles, Mean VisibilityMiles, Min VisibilityMiles, Max Wind SpeedMPH, Mean Wind SpeedMPH, Max Gust SpeedMPH,PrecipitationIn, CloudCover, Events, WindDirDegrees
2013-2-1,15,12,9,8,5,3,77,70,61,30.35,30.21,29.92,10,9,3,20,16,30,0.00,8,Snow,268
2013-2-2,21,15,9,19,14,3,93,86,67,30.33,30.05,29.94,10,3,1,17,10,21,0.02,8,Snow,220
2013-2-3,21,16,10,18,12,9,96,81,68,30.07,29.93,29.86,10,6,2,16,7,24,0.00,8,Snow,285
2013-2-4,23,18,12,21,16,9,93,87,74,30.09,29.95,29.84,10,3,0,10,7,,0.09,8,Fog-Snow,188
2013-2-5,27,22,17,23,20,16,96,87,63,29.97,29.89,29.84,10,4,0,9,3,,0.02,7,Fog-Snow,274
2013-2-6,28,18,9,25,16,5,92,76,53,30.36,30.20,29.94,10,8,5,15,9,20,0.00,4,,336
2013-2-7,39,24,10,28,21,7,87,73,62,30.30,30.14,29.88,10,9,6,12,5,,0.00,2,,133
2013-2-8,39,32,24,36,27,18,100,86,73,30.29,29.94,29.74,10,6,2,25,14,40,0.16,8,Rain-Snow,292
2013-2-9,28,24,19,19,17,14,89,75,61,30.45,30.39,30.30,10,9,5,16,8,23,0.00,4,,350
2013-2-10,42,30,19,36,24,14,85,68,55,30.34,30.10,29.82,10,10,8,17,7,23,0.00,5,,154
2013-2-11,48,40,32,43,35,23,100,79,60,29.96,29.79,29.69,10,9,2,30,16,48,0.01,7,Rain,236
2013-2-12,39,32,25,26,23,21,92,72,60,30.11,30.01,29.93,10,10,6,23,14,28,0.00,5,,273
2013-2-13,30,27,24,25,24,21,93,85,79,29.94,29.83,29.72,8,6,4,10,3,,0.00,4,,345
2013-2-14,37,31,25,34,29,22,93,88,70,29.94,29.87,29.79,10,6,2,21,9,31,0.00,6,Rain-Snow,215
2013-2-15,35,29,23,28,24,20,93,78,64,30.12,30.02,29.92,10,8,1,16,9,,0.00,6,Snow,304
2013-2-16,27,22,16,20,17,9,93,80,49,30.10,30.00,29.94,10,5,0,16,7,18,0.05,7,Fog-Snow,298
2013-2-17,19,11,3,12,8,0,91,78,57,30.29,30.10,29.98,10,5,1,18,11,20,0.00,6,Snow,299
2013-2-18,44,22,1,30,16,-1,91,67,55,30.30,30.11,29.78,10,10,7,17,7,23,0.00,1,,176
2013-2-19,43,29,15,37,22,9,93,81,71,30.03,29.80,29.62,10,5,0,28,20,43,0.19,8,Fog-Rain-Snow,258
2013-2-20,19,17,15,16,12,8,86,77,71,30.27,30.14,29.97,10,4,1,20,15,26,0.00,8,Snow,283
2013-2-21,21,19,17,16,13,12,86,77,68,30.38,30.30,30.20,10,7,2,13,8,,0.00,6,Snow,347
2013-2-22,37,29,21,36,27,14,100,86,74,30.28,30.00,29.92,10,6,1,18,11,25,0.02,7,Rain,162
2013-2-23,36,32,28,30,27,24,89,79,64,29.99,29.94,29.87,10,9,7,12,5,,0.00,7,,261
2013-2-24,32,28,25,26,22,19,85,76,69,30.17,30.05,29.89,10,9,4,14,8,,0.00,8,Snow,291
2013-2-25,41,30,19,27,23,18,96,76,53,30.24,30.18,30.06,10,8,2,9,2,,0.00,1,,84
2013-2-26,37,32,28,36,31,22,93,85,64,30.06,29.68,29.49,10,6,2,20,12,31,0.79,6,Rain,114
2013-2-27,39,36,32,38,34,30,100,91,83,29.67,29.59,29.48,10,6,2,16,9,23,0.31,8,Rain-Snow,219
2013-2-28,34,32,30,31,29,26,96,89,85,29.90,29.70,29.59,10,6,0,18,11,24,0.01,8,Fog-Snow,299